Regional Weather Roundup
Issued by NWS

Home | Current Version | Previous Version | Graphics & Text | Print | Product List | Glossary On
Versions: 1 2 3 4 5 6 7 8 9 10 11 12 13 14 15 16 17 18 19 20 21 22 23 24 25 26 27 28 29 30 31 32 33 34 35 36 37 38 39 40 41 42 43 44 45 46 47 48 49 50
000
ASUS45 KCYS 290610
RWRWY

WYOMING REGIONAL WEATHER ROUNDUP
NATIONAL WEATHER SERVICE CHEYENNE WY
1200 AM MDT SUN MAR 29 2015

NOTE:  "FAIR" INDICATES FEW OR NO CLOUDS BELOW 12,000 FEET
WITH NO SIGNIFICANT WEATHER AND/OR OBSTRUCTIONS TO VISIBILITY.

WYZ001-290700-
YELLOWSTONE NATIONAL PARK

CITY           SKY/WX    TMP DP  RH WIND       PRES   REMARKS
LK YELLOWSTONE   N/A     26  13  57 W3        30.31R
6HR MIN TEMP:  25; 6HR MAX TEMP:  44;

W YELLOWSTONE  NOT AVBL

$$
WYZ002>013-054>058-071-098>099-290700-
NORTHERN WYOMING

CITY           SKY/WX    TMP DP  RH WIND       PRES   REMARKS
JACKSON        FAIR      37  21  52 SW6       30.27R WCI  33
CODY           FAIR      46  12  25 W9        30.16R
GREYBULL       FAIR      51  15  23 NW25G37   30.10R
6HR MIN TEMP:  50; 6HR MAX TEMP:  66;

WORLAND        FAIR      47  15  27 N7        30.12R
6HR MIN TEMP:  44; 6HR MAX TEMP:  71;

SHERIDAN       MOCLDY    50  19  29 NW35G48   30.08R
6HR MIN TEMP:  50; 6HR MAX TEMP:  59;

BUFFALO        FAIR      48  15  26 NW32G52   30.04R
6HR MIN TEMP:  45; 6HR MAX TEMP:  57;

GILLETTE       FAIR      47  17  30 NW30G40   29.99R
6HR MIN TEMP:  47; 6HR MAX TEMP:  61;

HULETT         FAIR      48  18  29 W21G30    29.94S
NEWCASTLE      FAIR      50  12  22 NW24G35   29.97R

$$
WYZ014>020-022>026-101>103-290700-
CENTRAL WYOMING

CITY           SKY/WX    TMP DP  RH WIND       PRES   REMARKS
BIG PINEY      FAIR      36  18  48 N12       30.28R WCI  28
6HR MIN TEMP:  36; 6HR MAX TEMP:  58;

PINEDALE       FAIR      32  23  69 W9        30.27S WCI  24
DUBOIS         FAIR      36  21  55 W25       30.20S WCI  23
LANDER         FAIR      54   9  16 W23G39    30.02F
6HR MIN TEMP:  52; 6HR MAX TEMP:  65;

RIVERTON       FAIR      49  23  36 N29G37    30.13R
6HR MIN TEMP:  48; 6HR MAX TEMP:  66;

CASPER         FAIR      41  20  43 N3        30.10R
6HR MIN TEMP:  40; 6HR MAX TEMP:  70;

DOUGLAS        FAIR      45  14  28 W9        30.08R
6HR MIN TEMP:  45; 6HR MAX TEMP:  73;


$$
WYZ021-027>030-104>119-290700-
SOUTHERN WYOMING

CITY           SKY/WX    TMP DP  RH WIND       PRES   REMARKS
EVANSTON       FAIR      42  15  33 W6        30.31R
6HR MIN TEMP:  40; 6HR MAX TEMP:  58;

KEMMERER       FAIR      39  16  38 W23       30.26S WCI  29
FORT BRIDGER   FAIR      44  21  40 W16       30.30R
ROCK SPRINGS   FAIR      45  18  34 W17G23    30.25R
6HR MIN TEMP:  43; 6HR MAX TEMP:  62;

DIXON          FAIR      49  15  26 NW10      30.20R
RAWLINS        FAIR      49  19  30 W26G35    30.13R
6HR MIN TEMP:  49; 6HR MAX TEMP:  65;

SARATOGA       FAIR      43  19  39 CALM      30.16R
LARAMIE        FAIR      46  17  31 NW23      30.09R
6HR MIN TEMP:  44; 6HR MAX TEMP:  61;

CHEYENNE       FAIR      55  15  20 NW25G38   30.00R
6HR MIN TEMP:  53; 6HR MAX TEMP:  70;

TORRINGTON     FAIR      53  24  32 NW23G32   29.94R
6HR MIN TEMP:  53; 6HR MAX TEMP:  80;

PINE BLUFFS    FAIR      54  18  24 W12       30.00R

$$


USA.gov is the U.S. government's official web portal to all federal, state and local government web resources and services.